| time (UTC) | temp F | wind direction | speed MPH | gust MPH | rain 1hr in | rain 24hr in | rain mn in | humidity % | barometer mb |
| 20260503173657 | 63 | 322 | 7.0 | 21.0 | 0.00 | 0.03 | 0.01 | 39 | 999.2 |
| 20260503173151 | 63 | 266 | 7.0 | 22.0 | 0.01 | 0.03 | 0.01 | 41 | 999.2 |
| 20260503172646 | 62 | 308 | 7.0 | 22.0 | 0.01 | 0.04 | 0.01 | 42 | 999.0 |
| 20260503172138 | 62 | 253 | 9.0 | 22.0 | 0.01 | 0.04 | 0.01 | 42 | 999.0 |
| 20260503172117 | 62 | 302 | 9.0 | 22.0 | 0.01 | 0.04 | 0.01 | 44 | 999.0 |
| 20260503171347 | 63 | 313 | 8.0 | 21.0 | 0.01 | 0.04 | 0.01 | 41 | 999.1 |
| 20260503170620 | 62 | 243 | 7.0 | 21.0 | 0.01 | 0.04 | 0.01 | 43 | 999.1 |
| 20260503170115 | 62 | 297 | 8.0 | 21.0 | 0.01 | 0.04 | 0.01 | 42 | 999.1 |
| 20260503151013 | 60 | 308 | 4.0 | 13.0 | 0.00 | 0.04 | 0.00 | 48 | 999.3 |
| 20260503150516 | 60 | 216 | 6.0 | 13.0 | 0.00 | 0.05 | 0.00 | 49 | 999.3 |
| 20260503150236 | 59 | 305 | 8.0 | 13.0 | 0.00 | 0.05 | 0.00 | 50 | 999.3 |
| 20260503140142 | 57 | 262 | 2.0 | 9.0 | 0.00 | 0.06 | 0.00 | 55 | 999.9 |
| 20260503130815 | 54 | 305 | 3.0 | 6.0 | 0.00 | 0.06 | 0.00 | 62 | 999.9 |
| 20260503130308 | 54 | 305 | 3.0 | 6.0 | 0.00 | 0.06 | 0.00 | 62 | 999.9 |
| 20260503110450 | 48 | 305 | 0.0 | 0.0 | 0.00 | 0.08 | 0.00 | 77 | 999.9 |
| 20260503100246 | 50 | 305 | 0.0 | 0.0 | 0.00 | 0.08 | 0.00 | 75 | 1000.0 |
| 20260503090136 | 49 | 305 | 0.0 | 0.0 | 0.00 | 0.08 | 0.00 | 73 | 1000.6 |
| 20260503081536 | 49 | 305 | 0.0 | 0.0 | 0.00 | 0.08 | 0.00 | 76 | 1001.1 |
| 20260503081030 | 49 | 305 | 0.0 | 0.0 | 0.00 | 0.08 | 0.00 | 76 | 1001.5 |
| 20260503080526 | 49 | 305 | 0.0 | 0.0 | 0.00 | 0.08 | 0.00 | 75 | 1001.5 |
| 20260503072943 | 49 | 305 | 0.0 | 0.0 | 0.00 | 0.08 | 0.00 | 73 | 1001.6 |
| 20260503072438 | 49 | 305 | 0.0 | 0.0 | 0.00 | 0.08 | 0.00 | 73 | 1001.6 |
| 20260503072149 | 48 | 305 | 0.0 | 0.0 | 0.00 | 0.08 | 0.00 | 73 | 1001.6 |
| 20260503071425 | 48 | 305 | 0.0 | 0.0 | 0.00 | 0.08 | 0.00 | 73 | 1001.6 |
| 20260503070918 | 48 | 305 | 0.0 | 0.0 | 0.00 | 0.08 | 0.00 | 73 | 1001.6 |
| 20260503070412 | 48 | 305 | 0.0 | 0.0 | 0.00 | 0.08 | 0.00 | 72 | 1001.6 |
| 20260503060301 | 48 | 305 | 1.0 | 6.0 | 0.00 | 0.08 | 0.00 | 68 | 1002.1 |
| 20260503055002 | 49 | 305 | 6.0 | 12.0 | 0.00 | 0.08 | 0.00 | 66 | 1002.5 |
| 20260503054235 | 49 | 317 | 7.0 | 12.0 | 0.00 | 0.08 | 0.00 | 66 | 1002.5 |
| 20260503053731 | 49 | 302 | 7.0 | 12.0 | 0.00 | 0.08 | 0.00 | 67 | 1002.5 |
| 20260503053225 | 49 | 308 | 7.0 | 11.0 | 0.00 | 0.08 | 0.00 | 66 | 1002.5 |
| 20260503053203 | 49 | 311 | 7.0 | 14.0 | 0.00 | 0.08 | 0.00 | 65 | 1002.5 |
| 20260503052211 | 49 | 317 | 7.0 | 14.0 | 0.00 | 0.08 | 0.00 | 63 | 1002.5 |
| 20260503051707 | 49 | 311 | 8.0 | 14.0 | 0.01 | 0.08 | 0.00 | 61 | 1002.5 |
| 20260503051201 | 50 | 329 | 10.0 | 16.0 | 0.01 | 0.08 | 0.00 | 59 | 1002.6 |
| 20260503050654 | 50 | 319 | 10.0 | 16.0 | 0.01 | 0.08 | 0.00 | 55 | 1002.6 |
| 20260503050413 | 51 | 296 | 9.0 | 17.0 | 0.01 | 0.08 | 0.00 | 53 | 1002.6 |
| 20260503045641 | 52 | 313 | 8.0 | 17.0 | 0.01 | 0.08 | 0.08 | 52 | 1002.6 |
| 20260503045135 | 52 | 309 | 8.0 | 16.0 | 0.01 | 0.08 | 0.08 | 52 | 1002.6 |
| 20260503044630 | 53 | 302 | 8.0 | 16.0 | 0.01 | 0.08 | 0.08 | 52 | 1002.6 |
| 20260503044124 | 53 | 315 | 8.0 | 15.0 | 0.01 | 0.08 | 0.08 | 51 | 1002.6 |
| 20260503043844 | 53 | 294 | 8.0 | 15.0 | 0.01 | 0.08 | 0.08 | 49 | 1002.6 |
| 20260503043336 | 53 | 307 | 7.0 | 15.0 | 0.01 | 0.08 | 0.08 | 49 | 1002.6 |
| 20260503042607 | 53 | 313 | 6.0 | 12.0 | 0.01 | 0.08 | 0.08 | 49 | 1002.6 |
| 20260503042100 | 53 | 311 | 4.0 | 12.0 | 0.00 | 0.07 | 0.07 | 48 | 1002.6 |
| 20260503041557 | 53 | 280 | 5.0 | 9.0 | 0.00 | 0.07 | 0.07 | 47 | 1002.6 |
| 20260503041049 | 53 | 308 | 3.0 | 9.0 | 0.00 | 0.07 | 0.07 | 46 | 1002.6 |
| 20260503040541 | 52 | 308 | 1.0 | 7.0 | 0.00 | 0.07 | 0.07 | 47 | 1002.6 |
| 20260503040039 | 52 | 145 | 0.0 | 0.0 | 0.00 | 0.07 | 0.07 | 46 | 1002.6 |
| 20260503035531 | 52 | 144 | 0.0 | 0.0 | 0.00 | 0.07 | 0.07 | 44 | 1002.6 |
| 20260503035025 | 52 | 143 | 0.0 | 0.0 | 0.00 | 0.07 | 0.07 | 43 | 1002.6 |
| 20260503034735 | 52 | 143 | 0.0 | 0.0 | 0.00 | 0.07 | 0.07 | 41 | 1002.6 |
| 20260503034013 | 52 | 141 | 0.0 | 0.0 | 0.00 | 0.07 | 0.07 | 41 | 1002.9 |
| 20260503033507 | 52 | 137 | 0.0 | 0.0 | 0.00 | 0.07 | 0.07 | 41 | 1002.9 |
| 20260503033006 | 52 | 137 | 0.0 | 0.0 | 0.00 | 0.07 | 0.07 | 41 | 1002.9 |
| 20260503032506 | 52 | 137 | 0.0 | 0.0 | 0.00 | 0.07 | 0.07 | 41 | 1003.1 |
| 20260503032005 | 51 | 137 | 0.0 | 0.0 | 0.00 | 0.07 | 0.07 | 42 | 1003.1 |
| 20260503031508 | 51 | 131 | 0.0 | 0.0 | 0.00 | 0.07 | 0.07 | 41 | 1003.1 |
| 20260503031223 | 51 | 122 | 0.0 | 0.0 | 0.00 | 0.07 | 0.07 | 42 | 1003.1 |
| 20260503030501 | 50 | 92 | 0.0 | 0.0 | 0.00 | 0.07 | 0.07 | 44 | 1003.1 |
| 20260503030225 | 50 | 92 | 0.0 | 0.0 | 0.00 | 0.07 | 0.07 | 44 | 1003.1 |
| 20260503025501 | 50 | 92 | 0.0 | 0.0 | 0.00 | 0.07 | 0.07 | 41 | 1003.4 |
| 20260503025001 | 50 | 92 | 0.0 | 0.0 | 0.00 | 0.07 | 0.07 | 40 | 1003.4 |
| 20260503024459 | 50 | 92 | 0.0 | 0.0 | 0.00 | 0.07 | 0.07 | 40 | 1003.4 |
| 20260503023957 | 50 | 92 | 0.0 | 0.0 | 0.00 | 0.07 | 0.07 | 41 | 1003.6 |
| 20260503023456 | 50 | 92 | 0.0 | 0.0 | 0.00 | 0.07 | 0.07 | 41 | 1003.6 |
| 20260503022954 | 50 | 92 | 0.0 | 0.0 | 0.00 | 0.07 | 0.07 | 44 | 1003.6 |
| 20260503022454 | 51 | 92 | 0.0 | 0.0 | 0.00 | 0.07 | 0.07 | 44 | 1003.6 |
| 20260503021955 | 51 | 92 | 0.0 | 0.0 | 0.00 | 0.07 | 0.07 | 44 | 1003.6 |
| 20260503021457 | 51 | 92 | 0.0 | 0.0 | 0.00 | 0.07 | 0.07 | 42 | 1003.6 |
| 20260503020951 | 50 | 92 | 0.0 | 0.0 | 0.00 | 0.07 | 0.07 | 34 | 1003.6 |
| 20260503020700 | 50 | 92 | 0.0 | 0.0 | 0.00 | 0.07 | 0.07 | 34 | 1003.6 |
| 20260503015927 | 50 | 92 | 0.0 | 0.0 | 0.00 | 0.07 | 0.07 | 35 | 1003.7 |
| 20260503015415 | 50 | 92 | 0.0 | 0.0 | 0.00 | 0.07 | 0.07 | 35 | 1003.7 |
| 20260503014902 | 50 | 92 | 0.0 | 0.0 | 0.00 | 0.07 | 0.07 | 35 | 1003.7 |
| 20260503014349 | 50 | 92 | 0.0 | 0.0 | 0.00 | 0.07 | 0.07 | 34 | 1003.9 |
| 20260503013838 | 50 | 92 | 0.0 | 0.0 | 0.00 | 0.07 | 0.07 | 34 | 1003.9 |
| 20260503013326 | 50 | 92 | 0.0 | 0.0 | 0.00 | 0.07 | 0.07 | 33 | 1003.9 |
| 20260503013035 | 50 | 92 | 0.0 | 0.0 | 0.00 | 0.07 | 0.07 | 33 | 1004.0 |
| 20260503012305 | 50 | 92 | 0.0 | 0.0 | 0.00 | 0.07 | 0.07 | 34 | 1004.0 |
| 20260503011750 | 51 | 92 | 0.0 | 0.0 | 0.00 | 0.07 | 0.07 | 37 | 1004.0 |
| 20260503011237 | 51 | 92 | 0.0 | 0.0 | 0.00 | 0.07 | 0.07 | 35 | 1004.0 |
| 20260503010726 | 51 | 92 | 0.0 | 0.0 | 0.00 | 0.07 | 0.07 | 33 | 1004.0 |
| 20260503010214 | 51 | 92 | 0.0 | 0.0 | 0.00 | 0.07 | 0.07 | 34 | 1004.0 |
| 20260503005932 | 51 | 92 | 0.0 | 0.0 | 0.00 | 0.07 | 0.07 | 34 | 1004.2 |
| 20260503005148 | 51 | 92 | 0.0 | 0.0 | 0.00 | 0.07 | 0.07 | 34 | 1004.2 |
| 20260503004637 | 51 | 92 | 0.0 | 0.0 | 0.00 | 0.07 | 0.07 | 33 | 1004.2 |
| 20260503004353 | 51 | 92 | 0.0 | 0.0 | 0.00 | 0.07 | 0.07 | 34 | 1004.5 |
| 20260503003614 | 51 | 92 | 0.0 | 0.0 | 0.00 | 0.07 | 0.07 | 34 | 1004.5 |
| 20260503003104 | 51 | 92 | 0.0 | 0.0 | 0.00 | 0.07 | 0.07 | 35 | 1004.5 |
| 20260503002555 | 51 | 92 | 0.0 | 0.0 | 0.00 | 0.07 | 0.07 | 33 | 1004.7 |
| 20260503002049 | 51 | 92 | 0.0 | 0.0 | 0.00 | 0.07 | 0.07 | 34 | 1004.7 |
| 20260503001543 | 51 | 92 | 0.0 | 0.0 | 0.00 | 0.07 | 0.07 | 34 | 1004.7 |
| 20260503001038 | 51 | 92 | 0.0 | 0.0 | 0.00 | 0.07 | 0.07 | 34 | 1004.8 |
| 20260503000530 | 51 | 92 | 0.0 | 0.0 | 0.00 | 0.07 | 0.07 | 34 | 1004.8 |
| 20260503000023 | 51 | 92 | 0.0 | 0.0 | 0.00 | 0.07 | 0.07 | 34 | 1004.8 |
| 20260502235517 | 51 | 92 | 0.0 | 0.0 | 0.00 | 0.07 | 0.07 | 34 | 1005.2 |
| 20260502235011 | 51 | 92 | 0.0 | 0.0 | 0.00 | 0.07 | 0.07 | 37 | 1005.2 |
| 20260502234504 | 51 | 92 | 0.0 | 0.0 | 0.00 | 0.07 | 0.07 | 35 | 1005.2 |
| 20260502234219 | 51 | 92 | 0.0 | 0.0 | 0.00 | 0.07 | 0.07 | 34 | 1005.2 |
| 20260502233452 | 52 | 92 | 0.0 | 3.0 | 0.00 | 0.07 | 0.07 | 33 | 1005.2 |
| 20260502232948 | 52 | 92 | 0.0 | 3.0 | 0.00 | 0.07 | 0.07 | 32 | 1005.3 |
| 20260502232440 | 52 | 92 | 1.0 | 6.0 | 0.00 | 0.07 | 0.07 | 32 | 1005.3 |
| 20260502232153 | 52 | 92 | 2.0 | 6.0 | 0.00 | 0.07 | 0.07 | 32 | 1005.3 |
| 20260502231429 | 52 | 92 | 2.0 | 6.0 | 0.00 | 0.07 | 0.07 | 35 | 1005.3 |
| 20260502230925 | 52 | 92 | 2.0 | 6.0 | 0.00 | 0.07 | 0.07 | 32 | 1005.3 |
| 20260502230418 | 52 | 91 | 2.0 | 5.0 | 0.00 | 0.07 | 0.07 | 33 | 1005.3 |
| 20260502225912 | 51 | 91 | 3.0 | 7.0 | 0.00 | 0.07 | 0.07 | 33 | 1005.6 |
| 20260502225404 | 51 | 91 | 3.0 | 7.0 | 0.00 | 0.07 | 0.07 | 32 | 1005.6 |
| 20260502224854 | 52 | 91 | 3.0 | 7.0 | 0.00 | 0.07 | 0.07 | 32 | 1005.6 |
| 20260502224354 | 52 | 91 | 3.0 | 7.0 | 0.00 | 0.07 | 0.07 | 31 | 1005.8 |
| 20260502223847 | 52 | 87 | 3.0 | 9.0 | 0.00 | 0.07 | 0.07 | 30 | 1005.8 |
| 20260502223341 | 52 | 83 | 4.0 | 9.0 | 0.00 | 0.07 | 0.07 | 31 | 1005.8 |
| 20260502222836 | 52 | 93 | 5.0 | 9.0 | 0.00 | 0.07 | 0.07 | 32 | 1005.9 |
| 20260502222332 | 53 | 99 | 4.0 | 9.0 | 0.00 | 0.07 | 0.07 | 30 | 1005.9 |
| 20260502221823 | 53 | 99 | 3.0 | 7.0 | 0.00 | 0.07 | 0.07 | 32 | 1005.9 |
| 20260502221316 | 53 | 99 | 3.0 | 7.0 | 0.00 | 0.07 | 0.07 | 30 | 1006.1 |
| 20260502220811 | 53 | 114 | 2.0 | 6.0 | 0.00 | 0.07 | 0.07 | 30 | 1006.1 |
| 20260502220532 | 53 | 112 | 2.0 | 6.0 | 0.00 | 0.07 | 0.07 | 30 | 1006.1 |
| 20260502215754 | 53 | 104 | 2.0 | 6.0 | 0.00 | 0.07 | 0.07 | 32 | 1006.3 |
| 20260502215253 | 52 | 91 | 3.0 | 6.0 | 0.00 | 0.07 | 0.07 | 30 | 1006.3 |
| 20260502214746 | 53 | 92 | 3.0 | 6.0 | 0.01 | 0.07 | 0.07 | 30 | 1006.3 |
| 20260502214459 | 53 | 91 | 1.0 | 8.0 | 0.01 | 0.07 | 0.07 | 30 | 1006.4 |
| 20260502213735 | 53 | 104 | 2.0 | 8.0 | 0.01 | 0.07 | 0.07 | 30 | 1006.4 |
| 20260502213228 | 53 | 104 | 3.0 | 8.0 | 0.01 | 0.07 | 0.07 | 30 | 1006.4 |
| 20260502212722 | 53 | 104 | 3.0 | 8.0 | 0.01 | 0.07 | 0.07 | 29 | 1006.8 |
| 20260502212218 | 53 | 90 | 2.0 | 7.0 | 0.01 | 0.07 | 0.07 | 32 | 1006.8 |
| 20260502211710 | 53 | 89 | 2.0 | 7.0 | 0.01 | 0.07 | 0.07 | 32 | 1006.8 |
| 20260502211206 | 52 | 88 | 3.0 | 8.0 | 0.01 | 0.07 | 0.07 | 31 | 1006.9 |
| 20260502210652 | 52 | 103 | 3.0 | 8.0 | 0.01 | 0.07 | 0.07 | 29 | 1006.9 |
| 20260502210154 | 52 | 106 | 4.0 | 9.0 | 0.01 | 0.07 | 0.07 | 32 | 1006.9 |
| 20260502205647 | 53 | 97 | 3.0 | 9.0 | 0.01 | 0.07 | 0.07 | 30 | 1007.1 |
| 20260502205410 | 53 | 106 | 3.0 | 9.0 | 0.00 | 0.06 | 0.07 | 31 | 1007.1 |
| 20260502204854 | 53 | 93 | 3.0 | 9.0 | 0.00 | 0.06 | 0.06 | 32 | 1007.1 |
| 20260502204350 | 53 | 101 | 3.0 | 6.0 | 0.00 | 0.06 | 0.06 | 32 | 1007.4 |
| 20260502203624 | 53 | 100 | 2.0 | 5.0 | 0.00 | 0.06 | 0.06 | 31 | 1007.4 |
| 20260502203113 | 53 | 99 | 2.0 | 5.0 | 0.00 | 0.06 | 0.06 | 30 | 1007.4 |
| 20260502202607 | 54 | 99 | 3.0 | 10.0 | 0.00 | 0.06 | 0.06 | 31 | 1007.6 |
| 20260502202101 | 54 | 96 | 4.0 | 10.0 | 0.00 | 0.06 | 0.06 | 33 | 1007.6 |
| 20260502201556 | 54 | 95 | 5.0 | 10.0 | 0.00 | 0.06 | 0.06 | 29 | 1007.6 |
| 20260502201048 | 54 | 106 | 5.0 | 10.0 | 0.00 | 0.06 | 0.06 | 31 | 1008.0 |
| 20260502200542 | 55 | 103 | 4.0 | 9.0 | 0.00 | 0.06 | 0.06 | 31 | 1008.0 |
| 20260502200036 | 55 | 96 | 4.0 | 8.0 | 0.00 | 0.06 | 0.06 | 30 | 1008.0 |
| 20260502195531 | 55 | 143 | 3.0 | 10.0 | 0.00 | 0.06 | 0.06 | 30 | 1008.1 |
| 20260502195024 | 55 | 94 | 3.0 | 10.0 | 0.00 | 0.06 | 0.06 | 30 | 1008.1 |
| 20260502194518 | 54 | 103 | 4.0 | 11.0 | 0.00 | 0.06 | 0.06 | 32 | 1008.1 |
| 20260502194013 | 54 | 93 | 4.0 | 11.0 | 0.00 | 0.06 | 0.06 | 30 | 1008.5 |
| 20260502193507 | 54 | 104 | 4.0 | 14.0 | 0.00 | 0.06 | 0.06 | 32 | 1008.5 |
| 20260502193002 | 53 | 98 | 5.0 | 14.0 | 0.00 | 0.06 | 0.06 | 32 | 1008.5 |
| 20260502192500 | 53 | 72 | 5.0 | 12.0 | 0.00 | 0.06 | 0.06 | 31 | 1008.6 |
| 20260502192000 | 53 | 102 | 6.0 | 12.0 | 0.00 | 0.06 | 0.06 | 31 | 1008.6 |
| 20260502191458 | 53 | 68 | 6.0 | 12.0 | 0.00 | 0.06 | 0.06 | 31 | 1008.6 |
| 20260502190958 | 53 | 101 | 6.0 | 11.0 | 0.00 | 0.06 | 0.06 | 31 | 1008.9 |
| 20260502190459 | 53 | 106 | 6.0 | 10.0 | 0.00 | 0.06 | 0.06 | 30 | 1008.9 |
| 20260502185956 | 52 | 79 | 5.0 | 10.0 | 0.00 | 0.06 | 0.06 | 33 | 1008.9 |
| 20260502185457 | 52 | 79 | 5.0 | 12.0 | 0.00 | 0.06 | 0.06 | 34 | 1009.1 |
| 20260502185219 | 52 | 78 | 6.0 | 12.0 | 0.00 | 0.06 | 0.06 | 33 | 1009.1 |
| 20260502184718 | 52 | 79 | 6.0 | 12.0 | 0.00 | 0.06 | 0.06 | 32 | 1009.1 |
| 20260502183954 | 52 | 76 | 6.0 | 12.0 | 0.00 | 0.06 | 0.06 | 31 | 1009.4 |
| 20260502183457 | 52 | 64 | 5.0 | 10.0 | 0.00 | 0.06 | 0.06 | 32 | 1009.4 |
| 20260502182953 | 53 | 83 | 5.0 | 10.0 | 0.01 | 0.06 | 0.06 | 32 | 1009.6 |
| 20260502182453 | 53 | 79 | 4.0 | 10.0 | 0.01 | 0.06 | 0.06 | 34 | 1009.6 |
| 20260502181952 | 53 | 82 | 4.0 | 10.0 | 0.01 | 0.06 | 0.06 | 37 | 1009.6 |
| 20260502181452 | 53 | 112 | 6.0 | 11.0 | 0.01 | 0.06 | 0.06 | 35 | 1010.1 |
| 20260502180946 | 53 | 91 | 5.0 | 11.0 | 0.01 | 0.06 | 0.06 | 34 | 1010.1 |
| 20260502180655 | 53 | 103 | 5.0 | 11.0 | 0.01 | 0.06 | 0.06 | 35 | 1010.1 |